DO1AA Weather Reports


time (UTC)temp
C
wind
direction
speed
KPH
gust
KPH
rain 1hr
cm
rain 24hr
cm
rain mn
cm
humidity
%
barometer
mb
20260507114003 7 0 0.0 9.7 0.05 0.23 0.18 98 1001.8
20260507113005 7 326 3.2 6.4 0.05 0.23 0.18 99 1001.5
20260507111003 7 0 0.0 11.3 0.10 0.23 0.18 99 1001.3
20260507105006 7 301 3.2 6.4 0.05 0.20 0.15 98 1001.4
20260507104005 7 7 1.6 6.4 0.03 0.18 0.13 99 1001.3
20260507103004 7 349 3.2 9.7 0.05 0.18 0.13 98 1001.2
20260507100004 7 324 3.2 6.4 0.03 0.15 0.10 98 1001.1
20260507095004 7 324 3.2 6.4 0.05 0.15 0.10 98 1001.0
20260507094003 7 309 1.6 6.4 0.05 0.15 0.10 98 1001.0
20260507093003 7 0 0.0 6.4 0.03 0.13 0.05 98 1000.6
20260507092003 7 322 1.6 6.4 0.03 0.13 0.05 97 1000.5
20260507091003 7 24 3.2 6.4 0.03 0.13 0.05 97 1000.5
20260507090004 7 7 3.2 9.7 0.03 0.13 0.05 96 1000.4
20260507085006 7 0 0.0 9.7 0.00 0.10 0.03 96 1000.3
20260507084004 7 25 3.2 6.4 0.00 0.10 0.03 96 1000.1
20260507083004 7 14 1.6 6.4 0.00 0.10 0.03 95 1000.0
20260507082003 7 34 3.2 6.4 0.00 0.10 0.03 96 999.7
20260507081003 7 48 3.2 6.4 0.00 0.10 0.03 96 999.7
20260507080004 7 31 3.2 12.9 0.00 0.10 0.03 97 999.6
20260507074005 7 5 3.2 6.4 0.00 0.13 0.03 98 999.5
20260507073004 7 18 3.2 6.4 0.00 0.13 0.03 98 999.4
20260507072003 7 325 3.2 6.4 0.00 0.13 0.03 97 999.2
20260507071002 7 325 3.2 6.4 0.00 0.13 0.03 97 999.2
20260507070008 7 0 0.0 11.3 0.00 0.13 0.03 97 999.2
20260507065004 7 8 3.2 9.7 0.00 0.13 0.03 97 998.9
20260507064003 7 12 3.2 12.9 0.00 0.15 0.03 97 998.9
20260507063003 7 331 8.0 12.9 0.00 0.18 0.03 98 998.7
20260507062003 7 21 1.6 6.4 0.00 0.23 0.03 98 998.4
20260507061003 7 21 1.6 12.9 0.00 0.28 0.03 98 998.4
20260507060003 7 21 1.6 11.3 0.00 0.28 0.03 99 998.3
20260507055003 7 46 3.2 9.7 0.00 0.28 0.03 99 998.2
20260507054003 7 12 3.2 6.4 0.03 0.28 0.03 99 997.8
20260507053004 7 358 3.2 11.3 0.03 0.28 0.03 99 998.0
20260507052003 6 352 3.2 9.7 0.03 0.28 0.03 99 998.1
20260507051003 6 56 3.2 9.7 0.03 0.30 0.03 99 997.7
20260507050005 6 52 6.4 9.7 0.03 0.30 0.03 99 997.7
20260507045002 6 18 3.2 9.7 0.03 0.30 0.03 99 997.3
20260507044003 6 5 3.2 11.3 0.00 0.30 0.00 99 997.3
20260507043004 7 36 1.6 11.3 0.00 0.36 0.00 99 997.2
20260507042002 7 34 3.2 11.3 0.00 0.38 0.00 98 997.3
20260507041004 6 26 6.4 12.9 0.00 0.43 0.00 98 997.2
20260507040004 7 30 4.8 17.7 0.00 0.43 0.00 98 997.0
20260507035005 7 359 6.4 11.3 0.00 0.46 0.00 99 996.9
20260507034003 7 355 3.2 14.5 0.00 0.46 0.00 99 997.0
20260507033004 7 23 3.2 11.3 0.00 0.53 0.00 98 996.8
20260507032003 7 46 6.4 14.5 0.00 0.56 0.00 98 996.9
20260507031004 8 46 3.2 11.3 0.00 0.61 0.00 97 996.7
20260507030004 8 24 3.2 12.9 0.00 0.61 0.00 97 996.7
20260507025003 8 27 6.4 11.3 0.00 0.61 0.00 95 996.7
20260507023006 9 30 3.2 6.4 0.00 0.64 0.00 92 996.7
20260507022006 9 355 4.8 6.4 0.00 0.66 0.00 92 996.7
20260507021008 10 22 1.6 6.4 0.00 0.66 0.00 92 996.4
20260507020004 10 34 3.2 6.4 0.00 0.69 0.00 92 996.4
20260507015004 10 57 3.2 6.4 0.00 0.76 0.00 92 996.3
20260507014003 10 38 3.2 3.2 0.00 0.79 0.00 92 996.2
20260507013004 10 0 0.0 6.4 0.00 0.81 0.00 91 996.2
20260507012005 10 26 3.2 6.4 0.00 0.86 0.00 91 996.1
20260507010004 10 47 3.2 9.7 0.00 1.04 0.00 91 996.2
20260507004003 10 48 1.6 6.4 0.00 1.17 0.00 92 996.0
20260507003006 10 38 3.2 6.4 0.00 1.27 0.00 92 995.8
20260507001003 10 26 1.6 3.2 0.00 1.37 0.00 92 995.5
20260507000004 10 36 1.6 6.4 0.00 1.45 0.00 92 995.9
20260506235003 10 33 3.2 6.4 0.00 1.47 0.00 92 995.7
20260506232002 10 63 1.6 11.3 0.00 1.60 0.00 91 995.5
20260506231004 10 39 1.6 6.4 0.00 1.65 0.00 91 995.5
20260506230004 10 42 3.2 11.3 0.00 1.70 0.00 91 995.4
20260506225003 10 29 6.4 12.9 0.00 1.75 0.00 90 995.3
20260506224010 10 42 3.2 11.3 0.00 1.78 0.00 90 995.4
20260506221008 10 26 1.6 12.9 0.00 1.85 0.00 90 995.5
20260506214013 11 20 1.6 11.3 0.00 1.93 1.85 91 995.3
20260506205003 11 0 0.0 6.4 0.00 1.93 1.85 91 995.2
20260506204003 11 39 3.2 9.7 0.00 1.93 1.85 90 995.1
20260506202005 11 51 1.6 12.9 0.00 1.93 1.85 90 995.0
20260506200004 11 51 6.4 11.3 0.00 1.93 1.85 89 994.8
20260506195004 11 48 4.8 11.3 0.00 1.93 1.85 90 994.5
20260506194006 12 13 3.2 11.3 0.00 1.93 1.85 91 994.5
20260506193007 12 41 3.2 12.9 0.00 1.93 1.85 92 994.6
20260506192003 12 33 3.2 6.4 0.00 1.93 1.85 92 994.5
20260506191003 12 37 3.2 9.7 0.00 1.93 1.85 92 994.5
20260506190005 12 46 4.8 9.7 0.00 1.93 1.85 92 994.5
20260506184003 12 40 3.2 6.4 0.00 1.93 1.85 92 994.1
20260506181003 13 16 3.2 9.7 0.00 1.93 1.85 90 993.8
20260506180004 13 0 0.0 6.4 0.00 1.93 1.85 90 994.0
20260506175004 13 3 3.2 9.7 0.00 1.93 1.85 89 993.7
20260506174003 13 0 0.0 11.3 0.00 1.93 1.85 89 993.6
20260506173004 13 64 1.6 6.4 0.00 1.93 1.85 89 993.5
20260506172003 13 337 3.2 9.7 0.00 1.93 1.85 88 993.6
20260506171003 13 27 3.2 9.7 0.00 1.93 1.85 88 993.7
20260506170005 13 22 3.2 11.3 0.00 1.93 1.85 88 993.6
20260506165003 13 48 6.4 12.9 0.00 1.93 1.85 87 993.4
20260506164004 13 18 3.2 11.3 0.00 1.93 1.85 86 993.4
20260506163004 13 40 1.6 9.7 0.00 1.93 1.85 87 993.3
20260506162003 13 342 4.8 9.7 0.00 1.93 1.85 85 993.4
20260506161003 14 29 3.2 11.3 0.00 1.93 1.85 84 993.4
20260506160004 14 32 4.8 17.7 0.00 1.93 1.85 84 993.3
20260506155003 15 18 3.2 12.9 0.00 1.93 1.85 83 993.2
20260506154003 15 30 1.6 14.5 0.00 1.93 1.85 83 993.4
20260506153004 15 57 1.6 12.9 0.00 1.93 1.85 85 993.4
20260506152003 15 0 0.0 11.3 0.00 1.93 1.85 84 993.5
20260506151003 15 9 6.4 12.9 0.00 1.93 1.85 83 993.5
20260506150004 15 41 4.8 12.9 0.00 1.93 1.85 84 993.4
20260506144004 14 4 4.8 12.9 0.00 1.93 1.85 84 993.6
20260506143005 15 5 3.2 17.7 0.00 1.93 1.85 82 993.5
20260506142003 14 6 4.8 14.5 0.00 1.93 1.85 86 993.6
20260506141004 15 316 4.8 12.9 0.00 1.93 1.85 84 993.4
20260506140003 15 343 3.2 11.3 0.00 1.93 1.85 85 993.5
20260506134003 15 11 3.2 6.4 0.00 1.93 1.85 85 993.5
20260506133004 15 33 4.8 11.3 0.00 1.93 1.85 87 993.6
20260506132002 14 35 3.2 11.3 0.00 1.93 1.85 89 993.6
20260506131003 14 31 3.2 9.7 0.00 1.93 1.85 92 993.4
20260506130004 13 56 3.2 6.4 0.00 1.93 1.85 92 993.8
20260506125004 14 348 1.6 6.4 0.03 1.93 1.85 91 993.7
20260506123004 13 328 4.8 6.4 0.05 1.93 1.85 93 993.5
20260506122004 14 322 1.6 9.7 0.05 1.93 1.85 97 993.5
20260506121003 13 332 3.2 6.4 0.05 1.93 1.85 97 993.6
20260506120005 13 319 1.6 6.4 0.05 1.93 1.85 97 993.6
20260506115003 13 0 0.0 3.2 0.03 1.88 1.83 96 993.7